Location: Ajisawe
(8.4333°N, 4.3833°E)
Time: 00:53:56
(UTC+00:00)

Courier 1B Rocket - Pass Details

Date: 02 May 2021
Orbit: 920 x 1202 km, 28.3° (Epoch: 13 May)

Event Time Altitude Azimuth Distance (km) Brightness Sun altitude
Rises 16:07:46 0° 310° (NW) 3,556 9.0 24.2°
Reaches altitude 10° 16:12:49 10° 344° (NNW) 2,599 7.7 23.0°
Maximum altitude 16:14:29 11° 0° (N) 2,524 7.4 22.6°
Drops below altitude 10° 16:16:10 10° 16° (NNE) 2,604 7.3 22.2°
Sets 16:21:14 0° 51° (NE) 3,576 7.6 21.0°
